Storm Lake
Tuesday 11:35 PM
Temperature57° (73°/52°)
Dew Point54°
Relative Humidity88
%
Visibility10
mi
Pressure1018.3
mb
Wind DirectionSE
130°
Wind Speed7
mph
Precipitation Today0.00"

Last 30 Observations

Time PresWx Temp DP Feels RH% Vsby Pressure Ceiling Direction Speed 1h Precip
11:15 PM 57° 54° 88
%
10
mi
1018.6
mb
12,000
ft
SE
140°
7
mph
0.00"
10:55 PM 57° 54° 88
%
10
mi
1018.3
mb
SE
140°
8
mph
0.00"
10:35 PM 59° 54° 82
%
10
mi
1018.0
mb
SE
140°
7
mph
0.00"
10:15 PM 61° 54° 77
%
10
mi
1018.3
mb
SE
140°
8
mph
0.00"
9:55 PM 59° 55° 88
%
10
mi
1018.3
mb
6,000
ft
SSE
150°
8
mph
0.00"
9:35 PM 61° 55° 82
%
10
mi
1018.6
mb
6,000
ft
SSE
150°
7
mph
0.00"
9:15 PM 61° 54° 77
%
10
mi
1018.3
mb
6,000
ft
SSE
150°
7
mph
0.00"
8:55 PM 63° 54° 72
%
10
mi
1018.0
mb
6,000
ft
SE
130°
8
mph
0.00"
8:35 PM 63° 55° 77
%
10
mi
1018.0
mb
SE
130°
5
mph
0.00"
8:15 PM 64° 57° 77
%
10
mi
1017.6
mb
SE
140°
6
mph
0.00"
7:55 PM 66° 57° 73
%
10
mi
1017.6
mb
SE
130°
6
mph
0.00"
7:35 PM 68° 57° 68
%
10
mi
1017.6
mb
SE
130°
5
mph
0.00"
7:15 PM 70° 55° 60
%
10
mi
1017.6
mb
SE
130°
5
mph
0.00"
6:55 PM 70° 55° 60
%
10
mi
1018.0
mb
ESE
120°
3
mph
0.00"
6:35 PM 72° 52° 71°50
%
10
mi
1018.0
mb
ESE
120°
3
mph
0.00"
6:15 PM 72° 52° 71°50
%
10
mi
1018.0
mb
SSE
150°
5
mph
0.00"
5:55 PM 73° 48° 72°41
%
10
mi
1018.3
mb
Calm 0.00"
5:35 PM 73° 48° 72°41
%
10
mi
1018.6
mb
Calm 0.00"
5:15 PM 73° 48° 72°41
%
10
mi
1018.6
mb
Calm 0.00"
4:55 PM 73° 48° 72°41
%
10
mi
1019.0
mb
SW
230°
5
mph
0.00"
4:35 PM 73° 48° 72°41
%
10
mi
1019.0
mb
Calm 0.00"
4:15 PM 73° 50° 72°44
%
10
mi
1019.0
mb
Variable 5
mph
0.00"
3:55 PM 73° 50° 72°44
%
10
mi
1019.3
mb
Calm 0.00"
3:35 PM 72° 48° 71°43
%
10
mi
1019.7
mb
ENE
60°
6
mph
0.00"
3:15 PM 73° 50° 72°44
%
10
mi
1019.7
mb
Variable 6
mph
0.00"
2:55 PM 73° 48° 72°41
%
10
mi
1020.0
mb
Calm 0.00"
2:35 PM 73° 50° 72°44
%
10
mi
1020.0
mb
Variable 5
mph
0.00"
2:15 PM 72° 48° 71°43
%
10
mi
1020.3
mb
5
mph
0.00"
1:55 PM 72° 48° 71°43
%
10
mi
1020.3
mb
Variable 5
mph
0.00"
1:35 PM 72° 46° 70°41
%
10
mi
1020.7
mb
E
80°
5
mph
0.00"